Location: Dortmund
(51.5019°N, 7.6520°E)
Time: 07:46:55
(UTC+02:00)

ISS - Visible Passes

Search period start: 09 May 2021 00:00
Search period end: 19 May 2021 00:00
Orbit: 418 x 421 km, 51.6° (Epoch: 08 May)

Date Brightness Start Highest point End Pass type
(mag) Time Alt. Az. Time Alt. Az. Time Alt. Az.
09 May -1.9 02:03:26 22° E 02:03:26 22° E 02:04:55 10° E visible
09 May -3.8 03:36:22 22° W 03:38:23 88° NNW 03:41:48 10° E visible
10 May -3.9 02:50:23 58° WSW 02:50:57 83° S 02:54:21 10° E visible
10 May -3.8 04:24:24 10° W 04:27:48 86° S 04:31:11 10° ESE visible
11 May -3.2 02:04:21 47° E 02:04:21 47° E 02:06:55 10° E visible
11 May -3.8 03:37:17 12° W 03:40:22 87° N 03:43:45 10° E visible
12 May -1.8 01:18:16 20° E 01:18:16 20° E 01:19:28 10° E visible
12 May -3.8 02:51:11 27° W 02:52:55 85° N 02:56:18 10° E visible
12 May -3.7 04:26:21 10° W 04:29:42 59° SSW 04:33:02 10° ESE visible
13 May -3.8 02:05:01 65° W 02:05:28 88° N 02:08:51 10° E visible
13 May -3.9 03:38:55 10° W 03:42:18 74° SSW 03:45:40 10° ESE visible
14 May -3.5 01:18:38 57° E 01:18:38 57° E 01:21:24 10° E visible
14 May -3.9 02:51:31 10° W 02:54:52 85° S 02:58:15 10° ESE visible
14 May -3.1 04:28:23 10° W 04:31:28 33° SSW 04:34:34 10° SE visible
14 May -2.6 22:51:26 10° SSW 22:54:08 23° SE 22:55:39 17° ESE visible
15 May -3.9 00:27:14 10° WSW 00:30:36 71° SSE 00:33:58 10° E visible
15 May -3.8 02:04:02 10° W 02:07:25 87° N 02:10:49 10° E visible
15 May -3.5 03:40:52 10° W 03:44:08 45° SSW 03:47:23 10° SE visible
15 May -2.1 22:04:43 10° S 22:06:53 16° SE 22:09:03 10° E visible
15 May -3.8 23:39:52 10° WSW 23:43:11 56° SSE 23:46:31 10° E visible
16 May -3.8 01:16:34 10° W 01:19:58 85° N 01:23:21 10° E visible
16 May -3.8 02:53:24 10° W 02:56:45 59° SSW 03:00:05 10° ESE visible
16 May -2.2 04:30:47 10° W 04:33:05 17° SW 04:35:23 10° S visible
16 May -3.4 22:52:36 10° SW 22:55:49 43° SSE 22:59:02 10° E visible
17 May -3.8 00:29:07 10° W 00:32:30 88° N 00:35:54 10° E visible
17 May -3.9 02:05:57 10° W 02:09:20 73° SSW 02:12:42 10° ESE visible
17 May -2.7 03:43:01 10° W 03:45:49 24° SSW 03:48:36 10° SSE visible
17 May -3.0 22:05:26 10° SW 22:08:28 31° SSE 22:11:31 10° E visible
17 May -3.9 23:41:41 10° WSW 23:45:03 84° S 23:48:27 10° E visible
18 May -3.9 01:18:30 10° W 01:21:54 85° S 01:22:56 42° ESE visible
18 May -1.4 02:55:26 10° W 02:55:49 12° W 02:55:49 12° W visible
18 May -3.9 22:54:16 10° WSW 22:57:37 71° SSE 23:01:00 10° E visible
